Time,TemperatureF,DewpointF,PressureIn,WindDirection,WindDirectionDegrees,WindSpeedMPH,WindSpeedGustMPH,Humidity,HourlyPrecipIn,Conditions,Clouds,dailyrainin,SoftwareType,DateUTC
2013-06-10 00:00:00,71.5,63.5,29.75,SW,225,7.0,14.0,76,0.00,CLR,,0.03,WeatherDisplay:10.37,2013-06-10 05:00:00,
2013-06-10 00:05:00,72.4,63.3,29.76,SSW,211,5.0,11.0,73,0.00,CLR,,0.03,WeatherDisplay:10.37,2013-06-10 05:05:00,
2013-06-10 00:10:00,72.3,62.8,29.75,SW,225,9.0,19.0,72,0.00,CLR,,0.03,WeatherDisplay:10.37,2013-06-10 05:10:00,
2013-06-10 00:15:00,72.1,62.2,29.76,SW,225,5.0,15.0,71,0.00,CLR,,0.03,WeatherDisplay:10.37,2013-06-10 05:15:00,
2013-06-10 00:20:00,72.0,62.1,29.76,SSW,212,6.0,13.0,71,0.00,CLR,,0.03,WeatherDisplay:10.37,2013-06-10 05:20:00,
2013-06-10 00:25:00,72.2,62.7,29.76,WSW,252,7.0,13.0,72,0.00,CLR,,0.03,WeatherDisplay:10.37,2013-06-10 05:25:00,
2013-06-10 00:30:00,72.7,62.8,29.76,WNW,285,3.0,8.0,71,0.00,CLR,,0.03,WeatherDisplay:10.37,2013-06-10 05:30:00,
2013-06-10 00:35:00,73.4,63.0,29.76,WSW,257,5.0,13.0,70,0.00,CLR,,0.03,WeatherDisplay:10.37,2013-06-10 05:35:00,
2013-06-10 00:40:00,73.9,63.1,29.75,WSW,238,3.0,10.0,69,0.00,CLR,,0.03,WeatherDisplay:10.37,2013-06-10 05:40:00,
2013-06-10 00:45:00,73.7,62.5,29.75,SW,225,3.0,10.0,68,0.00,CLR,,0.03,WeatherDisplay:10.37,2013-06-10 05:45:00,
2013-06-10 00:50:00,73.9,62.7,29.75,SW,225,3.0,10.0,68,0.00,CLR,,0.03,WeatherDisplay:10.37,2013-06-10 05:50:00,
2013-06-10 00:55:00,73.8,63.4,29.76,WSW,239,6.0,13.0,70,0.00,CLR,,0.03,WeatherDisplay:10.37,2013-06-10 05:55:00,
2013-06-10 01:00:00,74.0,63.2,29.76,WSW,238,5.0,13.0,69,0.00,CLR,,0.03,WeatherDisplay:10.37,2013-06-10 06:00:00,
2013-06-10 01:05:00,73.9,63.1,29.76,SW,235,3.0,7.0,69,0.00,CLR,,0.03,WeatherDisplay:10.37,2013-06-10 06:05:00,
2013-06-10 01:10:00,73.7,63.3,29.76,SW,235,5.0,12.0,70,0.00,CLR,,0.03,WeatherDisplay:10.37,2013-06-10 06:10:00,
2013-06-10 01:15:00,73.2,62.8,29.76,SW,225,6.0,14.0,70,0.00,CLR,,0.03,WeatherDisplay:10.37,2013-06-10 06:15:00,
2013-06-10 01:20:00,73.0,63.4,29.76,SW,225,3.0,11.0,72,0.00,CLR,,0.03,WeatherDisplay:10.37,2013-06-10 06:20:00,
2013-06-10 01:25:00,73.1,63.1,29.75,SW,225,5.0,9.0,71,0.00,CLR,,0.03,WeatherDisplay:10.37,2013-06-10 06:25:00,
2013-06-10 01:30:00,73.9,63.5,29.75,WSW,238,6.0,14.0,70,0.00,CLR,,0.03,WeatherDisplay:10.37,2013-06-10 06:30:00,
2013-06-10 01:35:00,74.4,63.6,29.76,WSW,248,8.0,16.0,69,0.00,CLR,,0.03,WeatherDisplay:10.37,2013-06-10 06:35:00,
2013-06-10 01:40:00,74.2,63.4,29.76,WSW,248,5.0,14.0,69,0.00,CLR,,0.03,WeatherDisplay:10.37,2013-06-10 06:40:00,
2013-06-10 01:45:00,74.0,63.6,29.76,WSW,238,3.0,10.0,70,0.00,CLR,,0.03,WeatherDisplay:10.37,2013-06-10 06:45:00,
2013-06-10 01:50:00,74.0,63.6,29.76,SW,236,3.0,10.0,70,0.00,CLR,,0.03,WeatherDisplay:10.37,2013-06-10 06:50:00,
2013-06-10 01:55:00,73.9,63.5,29.76,SW,236,3.0,10.0,70,0.00,CLR,,0.03,WeatherDisplay:10.37,2013-06-10 06:55:00,
2013-06-10 02:00:00,73.9,63.1,29.75,WSW,240,7.0,14.0,69,0.00,CLR,,0.03,WeatherDisplay:10.37,2013-06-10 07:00:00,
2013-06-10 02:05:00,74.1,63.3,29.75,WSW,242,2.0,6.0,69,0.00,CLR,,0.03,WeatherDisplay:10.37,2013-06-10 07:05:00,
2013-06-10 02:10:00,74.4,63.1,29.75,SW,225,3.0,11.0,68,0.00,CLR,,0.03,WeatherDisplay:10.37,2013-06-10 07:10:00,
2013-06-10 02:15:00,75.0,63.3,29.75,SW,236,3.0,9.0,67,0.00,CLR,,0.03,WeatherDisplay:10.37,2013-06-10 07:15:00,
2013-06-10 02:20:00,75.2,63.1,29.75,SW,235,5.0,13.0,66,0.00,CLR,,0.03,WeatherDisplay:10.37,2013-06-10 07:20:00,
2013-06-10 02:25:00,75.5,63.3,29.75,WSW,247,5.0,10.0,66,0.00,CLR,,0.03,WeatherDisplay:10.37,2013-06-10 07:25:00,
2013-06-10 02:30:00,75.5,63.8,29.75,West,261,3.0,9.0,67,0.00,CLR,,0.03,WeatherDisplay:10.37,2013-06-10 07:30:00,
2013-06-10 02:35:00,75.1,63.8,29.75,SW,236,3.0,9.0,68,0.00,CLR,,0.03,WeatherDisplay:10.37,2013-06-10 07:35:00,
2013-06-10 02:40:00,75.3,63.2,29.75,SSW,211,6.0,13.0,66,0.00,CLR,,0.03,WeatherDisplay:10.37,2013-06-10 07:40:00,
2013-06-10 02:45:00,75.5,62.9,29.75,SSW,202,7.0,12.0,65,0.00,CLR,,0.03,WeatherDisplay:10.37,2013-06-10 07:45:00,
2013-06-10 02:50:00,76.3,63.2,29.75,SSW,202,2.0,6.0,64,0.00,CLR,,0.03,WeatherDisplay:10.37,2013-06-10 07:50:00,
2013-06-10 02:55:00,77.1,63.1,29.75,SW,216,3.0,9.0,62,0.00,CLR,,0.03,WeatherDisplay:10.37,2013-06-10 07:55:00,
2013-06-10 03:00:00,77.5,62.5,29.75,West,264,5.0,14.0,60,0.00,CLR,,0.03,WeatherDisplay:10.37,2013-06-10 08:00:00,
2013-06-10 03:05:00,77.3,62.3,29.75,West,280,6.0,17.0,60,0.00,CLR,,0.03,WeatherDisplay:10.37,2013-06-10 08:05:00,
2013-06-10 03:10:00,77.4,62.4,29.75,WSW,246,3.0,12.0,60,0.00,CLR,,0.03,WeatherDisplay:10.37,2013-06-10 08:10:00,
2013-06-10 03:15:00,77.7,62.7,29.75,SW,225,3.0,13.0,60,0.00,CLR,,0.03,WeatherDisplay:10.37,2013-06-10 08:15:00,
2013-06-10 03:20:00,77.4,62.9,29.75,West,278,7.0,14.0,61,0.00,CLR,,0.03,WeatherDisplay:10.37,2013-06-10 08:20:00,
2013-06-10 03:25:00,77.2,62.2,29.76,WNW,292,5.0,12.0,60,0.00,CLR,,0.03,WeatherDisplay:10.37,2013-06-10 08:25:00,
2013-06-10 03:30:00,77.1,62.1,29.75,WNW,292,6.0,13.0,60,0.00,CLR,,0.03,WeatherDisplay:10.37,2013-06-10 08:30:00,
2013-06-10 03:35:00,77.0,62.5,29.75,WNW,292,8.0,15.0,61,0.00,CLR,,0.03,WeatherDisplay:10.37,2013-06-10 08:35:00,
2013-06-10 03:40:00,77.0,62.0,29.75,WNW,292,8.0,17.0,60,0.00,CLR,,0.03,WeatherDisplay:10.37,2013-06-10 08:40:00,
2013-06-10 03:45:00,77.1,62.6,29.76,WNW,292,8.0,12.0,61,0.00,CLR,,0.03,WeatherDisplay:10.37,2013-06-10 08:45:00,
2013-06-10 03:50:00,77.2,62.2,29.76,WNW,292,6.0,14.0,60,0.00,CLR,,0.03,WeatherDisplay:10.37,2013-06-10 08:50:00,
2013-06-10 03:55:00,77.5,62.5,29.76,WNW,292,5.0,12.0,60,0.00,CLR,,0.03,WeatherDisplay:10.37,2013-06-10 08:55:00,
2013-06-10 04:00:00,77.7,62.7,29.75,WNW,283,3.0,16.0,60,0.00,CLR,,0.03,WeatherDisplay:10.37,2013-06-10 09:00:00,
2013-06-10 04:05:00,78.0,62.5,29.75,West,270,5.0,13.0,59,0.00,CLR,,0.03,WeatherDisplay:10.37,2013-06-10 09:05:00,
2013-06-10 04:10:00,78.0,62.5,29.75,WNW,283,7.0,14.0,59,0.00,CLR,,0.03,WeatherDisplay:10.37,2013-06-10 09:10:00,
2013-06-10 04:15:00,77.8,61.3,29.75,WNW,292,10.0,17.0,57,0.00,CLR,,0.03,WeatherDisplay:10.37,2013-06-10 09:15:00,
2013-06-10 04:20:00,77.6,61.7,29.75,WNW,292,10.0,18.0,58,0.00,CLR,,0.03,WeatherDisplay:10.37,2013-06-10 09:20:00,
2013-06-10 04:25:00,77.8,61.8,29.75,WNW,292,7.0,11.0,58,0.00,CLR,,0.03,WeatherDisplay:10.37,2013-06-10 09:25:00,
2013-06-10 04:30:00,78.5,62.5,29.75,WNW,292,3.0,9.0,58,0.00,CLR,,0.03,WeatherDisplay:10.37,2013-06-10 09:30:00,
2013-06-10 04:35:00,79.2,62.7,29.75,WNW,292,3.0,9.0,57,0.00,CLR,,0.03,WeatherDisplay:10.37,2013-06-10 09:35:00,
2013-06-10 04:40:00,79.0,62.0,29.75,West,277,8.0,15.0,56,0.00,CLR,,0.03,WeatherDisplay:10.37,2013-06-10 09:40:00,
2013-06-10 04:45:00,78.7,62.2,29.75,West,281,8.0,14.0,57,0.00,CLR,,0.03,WeatherDisplay:10.37,2013-06-10 09:45:00,
2013-06-10 04:50:00,79.1,62.6,29.75,WNW,292,3.0,13.0,57,0.00,CLR,,0.03,WeatherDisplay:10.37,2013-06-10 09:50:00,
2013-06-10 04:55:00,79.4,61.8,29.75,WNW,292,3.0,15.0,55,0.00,CLR,,0.03,WeatherDisplay:10.37,2013-06-10 09:55:00,
2013-06-10 05:00:00,79.6,61.5,29.75,WNW,292,7.0,14.0,54,0.00,CLR,,0.03,WeatherDisplay:10.37,2013-06-10 10:00:00,
2013-06-10 05:05:00,79.1,61.5,29.75,West,281,7.0,16.0,55,0.00,CLR,,0.03,WeatherDisplay:10.37,2013-06-10 10:05:00,
2013-06-10 05:10:00,79.3,61.2,29.75,West,270,6.0,13.0,54,0.00,CLR,,0.03,WeatherDisplay:10.37,2013-06-10 10:10:00,
2013-06-10 05:15:00,79.1,61.0,29.75,WNW,284,10.0,13.0,54,0.00,CLR,,0.03,WeatherDisplay:10.37,2013-06-10 10:15:00,
2013-06-10 05:20:00,79.2,61.6,29.75,WNW,292,6.0,11.0,55,0.00,CLR,,0.03,WeatherDisplay:10.37,2013-06-10 10:20:00,
2013-06-10 05:25:00,79.7,62.6,29.75,WNW,284,3.0,7.0,56,0.00,CLR,,0.03,WeatherDisplay:10.37,2013-06-10 10:25:00,
2013-06-10 05:30:00,79.6,63.0,29.75,WSW,256,6.0,12.0,57,0.00,CLR,,0.03,WeatherDisplay:10.37,2013-06-10 10:30:00,
2013-06-10 05:35:00,79.4,63.3,29.75,WSW,248,3.0,12.0,58,0.00,CLR,,0.03,WeatherDisplay:10.37,2013-06-10 10:35:00,
2013-06-10 05:40:00,79.6,63.0,29.75,WSW,248,3.0,8.0,57,0.00,CLR,,0.03,WeatherDisplay:10.37,2013-06-10 10:40:00,
2013-06-10 05:45:00,79.6,63.0,29.75,WSW,248,3.0,9.0,57,0.00,CLR,,0.03,WeatherDisplay:10.37,2013-06-10 10:45:00,
2013-06-10 05:50:00,79.8,63.2,29.75,WSW,248,3.0,9.0,57,0.00,CLR,,0.03,WeatherDisplay:10.37,2013-06-10 10:50:00,
2013-06-10 05:55:00,79.8,63.2,29.75,SW,236,3.0,10.0,57,0.00,CLR,,0.03,WeatherDisplay:10.37,2013-06-10 10:55:00,
2013-06-10 06:00:00,79.7,63.1,29.75,SW,236,3.0,9.0,57,0.00,CLR,,0.03,WeatherDisplay:10.37,2013-06-10 11:00:00,
2013-06-10 06:05:00,79.7,63.1,29.75,SW,236,3.0,9.0,57,0.00,CLR,,0.03,WeatherDisplay:10.37,2013-06-10 11:05:00,
2013-06-10 06:10:00,79.6,63.0,29.75,WSW,238,5.0,12.0,57,0.00,CLR,,0.03,WeatherDisplay:10.37,2013-06-10 11:10:00,
2013-06-10 06:15:00,79.4,62.8,29.75,SW,234,7.0,13.0,57,0.00,CLR,,0.03,WeatherDisplay:10.37,2013-06-10 11:15:00,
2013-06-10 06:20:00,79.2,63.1,29.75,SW,233,3.0,10.0,58,0.00,CLR,,0.03,WeatherDisplay:10.37,2013-06-10 11:20:00,
2013-06-10 06:25:00,79.3,63.2,29.75,West,265,2.0,8.0,58,0.00,CLR,,0.03,WeatherDisplay:10.37,2013-06-10 11:25:00,
2013-06-10 06:30:00,79.6,63.0,29.75,WSW,251,3.0,10.0,57,0.00,CLR,,0.03,WeatherDisplay:10.37,2013-06-10 11:30:00,
2013-06-10 06:35:00,79.7,63.1,29.75,SW,225,3.0,13.0,57,0.00,CLR,,0.03,WeatherDisplay:10.37,2013-06-10 11:35:00,
2013-06-10 06:40:00,79.7,63.1,29.75,SW,236,3.0,9.0,57,0.00,CLR,,0.03,WeatherDisplay:10.37,2013-06-10 11:40:00,
2013-06-10 06:45:00,79.5,62.9,29.75,SW,236,3.0,10.0,57,0.00,CLR,,0.03,WeatherDisplay:10.37,2013-06-10 11:45:00,
2013-06-10 06:50:00,79.3,62.7,29.75,SW,225,2.0,9.0,57,0.00,CLR,,0.03,WeatherDisplay:10.37,2013-06-10 11:50:00,
2013-06-10 06:55:00,79.0,62.5,29.76,SSW,213,2.0,9.0,57,0.00,CLR,,0.03,WeatherDisplay:10.37,2013-06-10 11:55:00,
2013-06-10 07:00:00,78.7,62.7,29.76,SSW,202,2.0,8.0,58,0.00,CLR,,0.03,WeatherDisplay:10.37,2013-06-10 12:00:00,
2013-06-10 07:05:00,78.5,62.5,29.76,SSW,213,2.0,6.0,58,0.00,CLR,,0.03,WeatherDisplay:10.37,2013-06-10 12:05:00,
2013-06-10 07:10:00,78.3,62.8,29.76,SW,225,3.0,9.0,59,0.00,CLR,,0.03,WeatherDisplay:10.37,2013-06-10 12:10:00,
2013-06-10 07:15:00,78.1,62.6,29.76,SW,225,3.0,7.0,59,0.00,CLR,,0.03,WeatherDisplay:10.37,2013-06-10 12:15:00,
2013-06-10 07:20:00,78.0,62.5,29.76,SW,225,2.0,7.0,59,0.00,CLR,,0.03,WeatherDisplay:10.37,2013-06-10 12:20:00,
2013-06-10 07:25:00,78.0,62.5,29.76,SW,225,3.0,10.0,59,0.00,CLR,,0.03,WeatherDisplay:10.37,2013-06-10 12:25:00,
2013-06-10 07:30:00,77.9,62.4,29.76,SW,225,3.0,9.0,59,0.00,CLR,,0.03,WeatherDisplay:10.37,2013-06-10 12:30:00,
2013-06-10 07:35:00,77.9,62.4,29.76,SW,225,3.0,9.0,59,0.00,CLR,,0.03,WeatherDisplay:10.37,2013-06-10 12:35:00,
2013-06-10 07:40:00,77.9,62.4,29.76,SW,225,3.0,8.0,59,0.00,CLR,,0.03,WeatherDisplay:10.37,2013-06-10 12:40:00,
2013-06-10 07:45:00,77.8,62.3,29.76,SSW,213,3.0,12.0,59,0.00,CLR,,0.03,WeatherDisplay:10.37,2013-06-10 12:45:00,
2013-06-10 07:50:00,77.7,61.7,29.77,SW,225,3.0,11.0,58,0.00,CLR,,0.03,WeatherDisplay:10.37,2013-06-10 12:50:00,
2013-06-10 07:55:00,77.7,61.7,29.77,WSW,248,2.0,6.0,58,0.00,CLR,,0.03,WeatherDisplay:10.37,2013-06-10 12:55:00,
2013-06-10 08:00:00,77.8,61.8,29.77,WSW,248,2.0,7.0,58,0.00,CLR,,0.03,WeatherDisplay:10.37,2013-06-10 13:00:00,
2013-06-10 08:05:00,77.8,61.8,29.77,WSW,248,2.0,7.0,58,0.00,CLR,,0.03,WeatherDisplay:10.37,2013-06-10 13:05:00,
2013-06-10 08:10:00,77.8,61.8,29.77,West,261,3.0,12.0,58,0.00,CLR,,0.03,WeatherDisplay:10.37,2013-06-10 13:10:00,
2013-06-10 08:15:00,78.0,62.0,29.77,West,281,3.0,11.0,58,0.00,CLR,,0.03,WeatherDisplay:10.37,2013-06-10 13:15:00,
2013-06-10 08:20:00,78.0,61.5,29.78,WNW,292,3.0,7.0,57,0.00,CLR,,0.03,WeatherDisplay:10.37,2013-06-10 13:20:00,
2013-06-10 08:25:00,78.0,61.5,29.78,WNW,292,3.0,6.0,57,0.00,CLR,,0.03,WeatherDisplay:10.37,2013-06-10 13:25:00,
2013-06-10 08:30:00,77.9,61.9,29.78,WNW,292,3.0,7.0,58,0.00,CLR,,0.03,WeatherDisplay:10.37,2013-06-10 13:30:00,
2013-06-10 08:35:00,77.7,61.7,29.78,WNW,292,3.0,7.0,58,0.00,CLR,,0.03,WeatherDisplay:10.37,2013-06-10 13:35:00,
2013-06-10 08:40:00,77.5,61.6,29.78,WNW,292,5.0,10.0,58,0.00,CLR,,0.03,WeatherDisplay:10.37,2013-06-10 13:40:00,
2013-06-10 08:45:00,77.4,61.5,29.78,WNW,292,6.0,10.0,58,0.00,CLR,,0.03,WeatherDisplay:10.37,2013-06-10 13:45:00,
2013-06-10 08:50:00,77.2,61.3,29.78,WNW,292,7.0,13.0,58,0.00,CLR,,0.03,WeatherDisplay:10.37,2013-06-10 13:50:00,
2013-06-10 08:55:00,77.1,61.2,29.79,WNW,292,7.0,11.0,58,0.00,CLR,,0.03,WeatherDisplay:10.37,2013-06-10 13:55:00,
2013-06-10 09:00:00,77.0,61.1,29.79,WNW,292,7.0,10.0,58,0.00,CLR,,0.03,WeatherDisplay:10.37,2013-06-10 14:00:00,
2013-06-10 09:05:00,76.9,61.0,29.79,WNW,292,7.0,11.0,58,0.00,CLR,,0.03,WeatherDisplay:10.37,2013-06-10 14:05:00,
2013-06-10 09:10:00,76.8,60.9,29.79,WNW,282,6.0,10.0,58,0.00,CLR,,0.03,WeatherDisplay:10.37,2013-06-10 14:10:00,
2013-06-10 09:15:00,76.7,60.8,29.79,West,281,6.0,12.0,58,0.00,CLR,,0.03,WeatherDisplay:10.37,2013-06-10 14:15:00,
2013-06-10 09:20:00,76.7,60.8,29.80,WNW,292,6.0,11.0,58,0.00,CLR,,0.03,WeatherDisplay:10.37,2013-06-10 14:20:00,
2013-06-10 09:25:00,76.6,60.7,29.80,WNW,292,8.0,12.0,58,0.00,CLR,,0.03,WeatherDisplay:10.37,2013-06-10 14:25:00,
2013-06-10 09:30:00,76.5,60.6,29.80,WNW,292,9.0,14.0,58,0.00,CLR,,0.03,WeatherDisplay:10.37,2013-06-10 14:30:00,
2013-06-10 09:35:00,76.4,61.0,29.80,WNW,292,9.0,12.0,59,0.00,CLR,,0.03,WeatherDisplay:10.37,2013-06-10 14:35:00,
2013-06-10 09:40:00,76.4,61.0,29.80,WNW,292,9.0,14.0,59,0.00,CLR,,0.03,WeatherDisplay:10.37,2013-06-10 14:40:00,
2013-06-10 09:45:00,76.3,60.9,29.81,WNW,292,7.0,12.0,59,0.00,CLR,,0.03,WeatherDisplay:10.37,2013-06-10 14:45:00,
2013-06-10 09:50:00,76.3,61.4,29.81,WNW,292,6.0,14.0,60,0.00,CLR,,0.03,WeatherDisplay:10.37,2013-06-10 14:50:00,
2013-06-10 09:55:00,76.2,61.3,29.81,WNW,292,6.0,11.0,60,0.00,CLR,,0.03,WeatherDisplay:10.37,2013-06-10 14:55:00,
2013-06-10 10:00:00,76.0,61.1,29.81,WNW,292,8.0,13.0,60,0.00,CLR,,0.03,WeatherDisplay:10.37,2013-06-10 15:00:00,
2013-06-10 10:05:00,75.8,61.4,29.81,WNW,292,6.0,11.0,61,0.00,CLR,,0.03,WeatherDisplay:10.37,2013-06-10 15:05:00,
2013-06-10 10:10:00,75.6,61.2,29.82,WNW,292,7.0,11.0,61,0.00,CLR,,0.03,WeatherDisplay:10.37,2013-06-10 15:10:00,
2013-06-10 10:15:00,75.3,61.4,29.82,WNW,292,6.0,10.0,62,0.00,CLR,,0.03,WeatherDisplay:10.37,2013-06-10 15:15:00,
2013-06-10 10:20:00,75.1,61.2,29.82,WNW,292,6.0,9.0,62,0.00,CLR,,0.03,WeatherDisplay:10.37,2013-06-10 15:20:00,
2013-06-10 10:25:00,74.7,61.3,29.82,WNW,292,6.0,10.0,63,0.00,CLR,,0.03,WeatherDisplay:10.37,2013-06-10 15:25:00,
2013-06-10 10:30:00,74.4,61.4,29.82,WNW,292,6.0,7.0,64,0.00,CLR,,0.03,WeatherDisplay:10.37,2013-06-10 15:30:00,
2013-06-10 10:35:00,74.2,61.2,29.82,WNW,292,5.0,8.0,64,0.00,CLR,,0.03,WeatherDisplay:10.37,2013-06-10 15:35:00,
2013-06-10 10:40:00,74.0,61.0,29.83,WNW,292,3.0,6.0,64,0.00,CLR,,0.03,WeatherDisplay:10.37,2013-06-10 15:40:00,
2013-06-10 10:45:00,73.9,61.4,29.83,WNW,292,3.0,7.0,65,0.00,CLR,,0.03,WeatherDisplay:10.37,2013-06-10 15:45:00,
2013-06-10 10:50:00,73.8,61.3,29.83,WNW,292,5.0,7.0,65,0.00,CLR,,0.03,WeatherDisplay:10.37,2013-06-10 15:50:00,
2013-06-10 10:55:00,73.6,61.1,29.83,WNW,292,5.0,7.0,65,0.00,CLR,,0.03,WeatherDisplay:10.37,2013-06-10 15:55:00,
2013-06-10 11:00:00,73.3,61.3,29.82,WNW,292,6.0,7.0,66,0.00,CLR,,0.03,WeatherDisplay:10.37,2013-06-10 16:00:00,
2013-06-10 11:05:00,73.1,61.1,29.82,WNW,292,5.0,7.0,66,0.00,CLR,,0.03,WeatherDisplay:10.37,2013-06-10 16:05:00,
2013-06-10 11:10:00,72.8,61.2,29.82,WNW,292,5.0,7.0,67,0.00,CLR,,0.03,WeatherDisplay:10.37,2013-06-10 16:10:00,
2013-06-10 11:15:00,72.6,61.0,29.83,WNW,292,3.0,6.0,67,0.00,CLR,,0.03,WeatherDisplay:10.37,2013-06-10 16:15:00,
2013-06-10 11:20:00,72.4,61.2,29.83,WNW,292,2.0,6.0,68,0.00,CLR,,0.03,WeatherDisplay:10.37,2013-06-10 16:20:00,
2013-06-10 11:25:00,72.2,61.0,29.83,WNW,292,2.0,5.0,68,0.00,CLR,,0.03,WeatherDisplay:10.37,2013-06-10 16:25:00,
2013-06-10 11:30:00,72.0,60.9,29.83,WNW,292,3.0,6.0,68,0.00,CLR,,0.03,WeatherDisplay:10.37,2013-06-10 16:30:00,
2013-06-10 11:35:00,71.8,61.1,29.83,WNW,292,3.0,6.0,69,0.00,CLR,,0.03,WeatherDisplay:10.37,2013-06-10 16:35:00,
2013-06-10 11:40:00,71.7,61.0,29.83,WNW,292,5.0,6.0,69,0.00,CLR,,0.03,WeatherDisplay:10.37,2013-06-10 16:40:00,
2013-06-10 11:45:00,71.5,60.8,29.84,WNW,292,5.0,7.0,69,0.00,CLR,,0.03,WeatherDisplay:10.37,2013-06-10 16:45:00,
2013-06-10 11:50:00,71.3,61.0,29.84,WNW,292,3.0,7.0,70,0.00,CLR,,0.03,WeatherDisplay:10.37,2013-06-10 16:50:00,
2013-06-10 11:55:00,71.1,60.8,29.84,WNW,292,3.0,6.0,70,0.00,CLR,,0.03,WeatherDisplay:10.37,2013-06-10 16:55:00,
2013-06-10 12:00:00,70.8,61.3,29.84,WNW,283,2.0,6.0,72,0.00,CLR,,0.03,WeatherDisplay:10.37,2013-06-10 17:00:00,
2013-06-10 12:05:00,70.4,60.9,29.84,West,270,1.0,4.0,72,0.00,RA,,0.00,WeatherDisplay:10.37,2013-06-10 17:05:00,
2013-06-10 12:10:00,70.1,61.0,29.84,West,270,1.0,4.0,73,0.00,RA,,0.00,WeatherDisplay:10.37,2013-06-10 17:10:00,
2013-06-10 12:15:00,69.8,60.8,29.84,West,270,1.0,4.0,73,0.00,CLR,,0.00,WeatherDisplay:10.37,2013-06-10 17:15:00,
2013-06-10 12:20:00,69.4,60.4,29.84,West,270,1.0,5.0,73,0.00,CLR,,0.00,WeatherDisplay:10.37,2013-06-10 17:20:00,
2013-06-10 12:25:00,69.3,60.7,29.84,West,270,2.0,4.0,74,0.00,CLR,,0.00,WeatherDisplay:10.37,2013-06-10 17:25:00,
2013-06-10 12:30:00,69.2,60.6,29.84,West,270,0.0,2.0,74,0.00,CLR,,0.00,WeatherDisplay:10.37,2013-06-10 17:30:00,
2013-06-10 12:35:00,69.0,60.4,29.84,West,270,0.0,2.0,74,0.00,CLR,,0.00,WeatherDisplay:10.37,2013-06-10 17:35:00,
2013-06-10 12:40:00,68.9,60.6,29.84,West,270,0.0,2.0,75,0.00,CLR,,0.00,WeatherDisplay:10.37,2013-06-10 17:40:00,
2013-06-10 12:45:00,68.6,60.4,29.85,West,270,1.0,5.0,75,0.00,CLR,,0.00,WeatherDisplay:10.37,2013-06-10 17:45:00,
2013-06-10 12:50:00,68.5,60.3,29.85,West,270,2.0,6.0,75,0.00,CLR,,0.00,WeatherDisplay:10.37,2013-06-10 17:50:00,
2013-06-10 12:55:00,68.4,60.5,29.85,West,270,0.0,2.0,76,0.00,CLR,,0.00,WeatherDisplay:10.37,2013-06-10 17:55:00,
2013-06-10 13:00:00,68.2,60.3,29.85,West,270,0.0,2.0,76,0.00,CLR,,0.00,WeatherDisplay:10.37,2013-06-10 18:00:00,
2013-06-10 13:05:00,67.9,60.4,29.85,West,270,0.0,2.0,77,0.00,CLR,,0.00,WeatherDisplay:10.37,2013-06-10 18:05:00,
2013-06-10 13:10:00,67.7,60.2,29.85,West,270,0.0,2.0,77,0.00,CLR,,0.00,WeatherDisplay:10.37,2013-06-10 18:10:00,
2013-06-10 13:15:00,67.5,60.0,29.85,West,270,0.0,2.0,77,0.00,CLR,,0.00,WeatherDisplay:10.37,2013-06-10 18:15:00,
2013-06-10 13:20:00,67.4,59.9,29.85,West,270,0.0,1.0,77,0.00,CLR,,0.00,WeatherDisplay:10.37,2013-06-10 18:20:00,
2013-06-10 13:25:00,67.2,60.1,29.85,West,270,0.0,2.0,78,0.00,CLR,,0.00,WeatherDisplay:10.37,2013-06-10 18:25:00,
2013-06-10 13:30:00,67.0,59.9,29.85,West,270,1.0,5.0,78,0.00,CLR,,0.00,WeatherDisplay:10.37,2013-06-10 18:30:00,
2013-06-10 13:35:00,66.8,59.7,29.85,West,270,0.0,3.0,78,0.00,CLR,,0.00,WeatherDisplay:10.37,2013-06-10 18:35:00,
2013-06-10 13:40:00,66.7,59.6,29.85,West,270,1.0,3.0,78,0.00,CLR,,0.00,WeatherDisplay:10.37,2013-06-10 18:40:00,
2013-06-10 13:45:00,66.6,59.5,29.85,West,270,1.0,5.0,78,0.00,CLR,,0.00,WeatherDisplay:10.37,2013-06-10 18:45:00,
2013-06-10 13:50:00,66.5,59.4,29.85,West,270,1.0,3.0,78,0.00,CLR,,0.00,WeatherDisplay:10.37,2013-06-10 18:50:00,
2013-06-10 13:55:00,66.4,59.7,29.85,West,270,1.0,3.0,79,0.00,CLR,,0.00,WeatherDisplay:10.37,2013-06-10 18:55:00,
2013-06-10 14:00:00,66.3,59.6,29.85,West,270,2.0,5.0,79,0.00,CLR,,0.00,WeatherDisplay:10.37,2013-06-10 19:00:00,
2013-06-10 14:05:00,66.1,59.4,29.85,West,270,2.0,6.0,79,0.00,CLR,,0.00,WeatherDisplay:10.37,2013-06-10 19:05:00,
2013-06-10 14:10:00,65.8,59.5,29.85,West,270,2.0,5.0,80,0.00,CLR,,0.00,WeatherDisplay:10.37,2013-06-10 19:10:00,
2013-06-10 14:15:00,65.6,59.3,29.85,West,270,2.0,5.0,80,0.00,CLR,,0.00,WeatherDisplay:10.37,2013-06-10 19:15:00,
2013-06-10 14:20:00,65.4,59.4,29.85,West,270,3.0,7.0,81,0.00,CLR,,0.00,WeatherDisplay:10.37,2013-06-10 19:20:00,
2013-06-10 14:25:00,65.2,59.2,29.86,West,270,3.0,7.0,81,0.00,CLR,,0.00,WeatherDisplay:10.37,2013-06-10 19:25:00,
2013-06-10 14:30:00,65.1,59.1,29.86,West,265,1.0,5.0,81,0.00,CLR,,0.00,WeatherDisplay:10.37,2013-06-10 19:30:00,
2013-06-10 14:35:00,65.2,59.6,29.86,West,259,1.0,3.0,82,0.00,CLR,,0.00,WeatherDisplay:10.37,2013-06-10 19:35:00,
2013-06-10 14:40:00,65.2,59.6,29.86,West,259,1.0,3.0,82,0.00,CLR,,0.00,WeatherDisplay:10.37,2013-06-10 19:40:00,
2013-06-10 14:45:00,65.1,59.5,29.86,WSW,248,1.0,3.0,82,0.00,CLR,,0.00,WeatherDisplay:10.37,2013-06-10 19:45:00,
2013-06-10 14:50:00,65.1,59.5,29.86,West,259,1.0,5.0,82,0.00,CLR,,0.00,WeatherDisplay:10.37,2013-06-10 19:50:00,
2013-06-10 14:55:00,65.2,59.2,29.86,West,270,0.0,2.0,81,0.00,CLR,,0.00,WeatherDisplay:10.37,2013-06-10 19:55:00,
2013-06-10 15:00:00,65.1,59.1,29.87,West,270,0.0,4.0,81,0.00,CLR,,0.00,WeatherDisplay:10.37,2013-06-10 20:00:00,
2013-06-10 15:05:00,65.0,59.4,29.87,West,270,0.0,3.0,82,0.00,CLR,,0.00,WeatherDisplay:10.37,2013-06-10 20:05:00,
2013-06-10 15:10:00,64.8,59.2,29.87,West,270,0.0,2.0,82,0.00,CLR,,0.00,WeatherDisplay:10.37,2013-06-10 20:10:00,
2013-06-10 15:15:00,64.6,59.0,29.87,West,270,0.0,3.0,82,0.00,CLR,,0.00,WeatherDisplay:10.37,2013-06-10 20:15:00,
2013-06-10 15:20:00,64.6,59.3,29.87,West,270,1.0,5.0,83,0.00,CLR,,0.00,WeatherDisplay:10.37,2013-06-10 20:20:00,
2013-06-10 15:25:00,64.5,59.2,29.87,West,270,0.0,1.0,83,0.00,CLR,,0.00,WeatherDisplay:10.37,2013-06-10 20:25:00,
2013-06-10 15:30:00,64.5,59.2,29.87,West,270,1.0,4.0,83,0.00,CLR,,0.00,WeatherDisplay:10.37,2013-06-10 20:30:00,
2013-06-10 15:35:00,64.6,59.3,29.88,West,270,3.0,5.0,83,0.00,CLR,,0.00,WeatherDisplay:10.37,2013-06-10 20:35:00,
2013-06-10 15:40:00,64.6,59.3,29.88,West,270,2.0,5.0,83,0.00,CLR,,0.00,WeatherDisplay:10.37,2013-06-10 20:40:00,
2013-06-10 15:45:00,64.6,59.3,29.88,West,270,1.0,3.0,83,0.00,CLR,,0.00,WeatherDisplay:10.37,2013-06-10 20:45:00,
2013-06-10 15:50:00,64.6,59.3,29.88,West,270,2.0,6.0,83,0.00,CLR,,0.00,WeatherDisplay:10.37,2013-06-10 20:50:00,
2013-06-10 15:55:00,64.6,59.3,29.88,West,270,5.0,9.0,83,0.00,CLR,,0.00,WeatherDisplay:10.37,2013-06-10 20:55:00,
2013-06-10 16:00:00,64.6,59.3,29.88,West,279,3.0,7.0,83,0.00,CLR,,0.00,WeatherDisplay:10.37,2013-06-10 21:00:00,
2013-06-10 16:05:00,64.6,59.3,29.88,WNW,292,2.0,6.0,83,0.00,CLR,,0.00,WeatherDisplay:10.37,2013-06-10 21:05:00,
2013-06-10 16:10:00,64.5,59.2,29.88,WNW,292,0.0,2.0,83,0.00,CLR,,0.00,WeatherDisplay:10.37,2013-06-10 21:10:00,
2013-06-10 16:15:00,64.5,59.2,29.88,WNW,292,1.0,3.0,83,0.00,CLR,,0.00,WeatherDisplay:10.37,2013-06-10 21:15:00,
2013-06-10 16:20:00,64.4,59.1,29.88,WNW,292,1.0,4.0,83,0.00,CLR,,0.00,WeatherDisplay:10.37,2013-06-10 21:20:00,
2013-06-10 16:25:00,64.3,59.4,29.88,WNW,292,2.0,5.0,84,0.00,CLR,,0.00,WeatherDisplay:10.37,2013-06-10 21:25:00,
2013-06-10 16:30:00,64.3,59.0,29.89,WNW,292,2.0,7.0,83,0.00,CLR,,0.00,WeatherDisplay:10.37,2013-06-10 21:30:00,
2013-06-10 16:35:00,64.2,59.3,29.89,WNW,292,3.0,7.0,84,0.00,CLR,,0.00,WeatherDisplay:10.37,2013-06-10 21:35:00,
2013-06-10 16:40:00,64.2,59.3,29.89,WNW,292,3.0,7.0,84,0.00,CLR,,0.00,WeatherDisplay:10.37,2013-06-10 21:40:00,
2013-06-10 16:45:00,64.1,59.2,29.89,WNW,292,2.0,5.0,84,0.00,CLR,,0.00,WeatherDisplay:10.37,2013-06-10 21:45:00,
2013-06-10 16:50:00,64.0,59.1,29.90,WNW,292,3.0,8.0,84,0.00,CLR,,0.00,WeatherDisplay:10.37,2013-06-10 21:50:00,
2013-06-10 16:55:00,63.8,59.2,29.90,WNW,292,3.0,7.0,85,0.00,CLR,,0.00,WeatherDisplay:10.37,2013-06-10 21:55:00,
2013-06-10 17:00:00,63.7,59.1,29.90,WNW,292,3.0,6.0,85,0.00,CLR,,0.00,WeatherDisplay:10.37,2013-06-10 22:00:00,
2013-06-10 17:05:00,63.6,59.0,29.90,WNW,292,3.0,6.0,85,0.00,CLR,,0.00,WeatherDisplay:10.37,2013-06-10 22:05:00,
2013-06-10 17:10:00,63.5,59.2,29.90,WNW,292,2.0,5.0,86,0.00,CLR,,0.00,WeatherDisplay:10.37,2013-06-10 22:10:00,
2013-06-10 17:15:00,63.3,59.0,29.90,WNW,292,3.0,5.0,86,0.00,CLR,,0.00,WeatherDisplay:10.37,2013-06-10 22:15:00,
2013-06-10 17:20:00,63.2,58.9,29.90,WNW,292,0.0,3.0,86,0.00,CLR,,0.00,WeatherDisplay:10.37,2013-06-10 22:20:00,
2013-06-10 17:25:00,63.1,58.8,29.89,WNW,292,0.0,1.0,86,0.00,CLR,,0.00,WeatherDisplay:10.37,2013-06-10 22:25:00,
2013-06-10 17:30:00,62.9,58.6,29.89,WNW,292,0.0,0.0,86,0.00,CLR,,0.00,WeatherDisplay:10.37,2013-06-10 22:30:00,
2013-06-10 17:35:00,62.8,58.9,29.89,WNW,292,0.0,0.0,87,0.00,CLR,,0.00,WeatherDisplay:10.37,2013-06-10 22:35:00,
2013-06-10 17:40:00,62.7,58.8,29.89,WNW,292,1.0,3.0,87,0.00,CLR,,0.00,WeatherDisplay:10.37,2013-06-10 22:40:00,
2013-06-10 17:45:00,62.6,58.7,29.90,WNW,292,0.0,3.0,87,0.00,CLR,,0.00,WeatherDisplay:10.37,2013-06-10 22:45:00,
2013-06-10 17:50:00,62.6,59.0,29.90,WNW,292,0.0,3.0,88,0.00,CLR,,0.00,WeatherDisplay:10.37,2013-06-10 22:50:00,
2013-06-10 17:55:00,62.6,59.0,29.89,WNW,292,0.0,2.0,88,0.00,CLR,,0.00,WeatherDisplay:10.37,2013-06-10 22:55:00,
2013-06-10 18:00:00,62.6,59.0,29.89,WNW,292,1.0,2.0,88,0.00,CLR,,0.00,WeatherDisplay:10.37,2013-06-10 23:00:00,
2013-06-10 18:05:00,62.7,59.1,29.90,WNW,292,0.0,3.0,88,0.00,CLR,,0.00,WeatherDisplay:10.37,2013-06-10 23:05:00,
2013-06-10 18:10:00,62.8,59.2,29.90,WNW,292,1.0,3.0,88,0.00,CLR,,0.00,WeatherDisplay:10.37,2013-06-10 23:10:00,
2013-06-10 18:15:00,62.9,59.3,29.90,WNW,292,1.0,3.0,88,0.00,CLR,,0.00,WeatherDisplay:10.37,2013-06-10 23:15:00,
2013-06-10 18:20:00,63.2,59.6,29.90,WNW,292,0.0,3.0,88,0.00,CLR,,0.00,WeatherDisplay:10.37,2013-06-10 23:20:00,
2013-06-10 18:25:00,63.3,59.4,29.90,WNW,292,1.0,3.0,87,0.00,CLR,,0.00,WeatherDisplay:10.37,2013-06-10 23:25:00,
2013-06-10 18:30:00,63.4,59.5,29.91,WNW,292,1.0,3.0,87,0.00,CLR,,0.00,WeatherDisplay:10.37,2013-06-10 23:30:00,
2013-06-10 18:35:00,63.6,59.7,29.90,WNW,292,1.0,3.0,87,0.00,CLR,,0.00,WeatherDisplay:10.37,2013-06-10 23:35:00,
2013-06-10 18:40:00,63.9,60.0,29.90,WNW,292,0.0,1.0,87,0.00,CLR,,0.00,WeatherDisplay:10.37,2013-06-10 23:40:00,
2013-06-10 18:45:00,64.2,60.2,29.90,WNW,292,0.0,3.0,87,0.00,CLR,,0.00,WeatherDisplay:10.37,2013-06-10 23:45:00,
2013-06-10 18:50:00,64.5,60.2,29.90,WNW,292,1.0,4.0,86,0.00,CLR,,0.00,WeatherDisplay:10.37,2013-06-10 23:50:00,
2013-06-10 18:55:00,64.8,60.2,29.90,WNW,292,1.0,3.0,85,0.00,CLR,,0.00,WeatherDisplay:10.37,2013-06-10 23:55:00,